This demonstration page uses our WeatherBlox Daily Observations layout. Learn more.

Left ArrowRight Arrow

Hourly Observations for August 26, 2015

Temp ( °F °C ) Dew Point ( °F °C ) Humidity (%) Winds ( mph kmh ) Pressure ( in mb ) Visibility ( mi km ) Precip ( " mm )
12:54 am 00:54 Clear 61 16.1 58 14.4 90 90 NE 3 6 30.14 1021 10 16.0934 0 0
1:54 am 01:54 Clear 59 15 57 13.9 93 93 NE 3 6 30.14 1021 10 16.0934 0 0
2:54 am 02:54 Clear 58 14.4 56 13.3 93 93 N 3 6 30.14 1021 10 16.0934 0 0
3:54 am 03:54 Clear 57 13.9 56 13.3 96 96 N 3 6 30.14 1021 10 16.0934 0 0
4:54 am 04:54 Clear 56 13.3 54 12.2 93 93 N 3 6 30.14 1021 10 16.0934 0 0
5:54 am 05:54 Clear 55 12.8 54 12.2 96 96 Calm 30.14 1021 10 16.0934 0 0
6:54 am 06:54 Sunny 55 12.8 53 11.7 93 93 Calm 30.16 1022 10 16.0934 0 0
7:54 am 07:54 Sunny 60 15.6 57 13.9 90 90 Calm 30.17 1022 10 16.0934 0 0
8:54 am 08:54 Sunny 66 18.9 57 13.9 73 73 SE 5 7 30.17 1022 10 16.0934 0 0
9:54 am 09:54 Sunny 70 21.1 55 12.8 59 59 SE 10 17 30.16 1021 10 16.0934 0 0
10:54 am 10:54 Sunny 73 22.8 57 13.9 57 57 SE 9 15 30.16 1021 10 16.0934 0 0
11:54 am 11:54 Sunny 76 24.4 59 15 56 56 SE 10 17 30.16 1021 10 16.0934 0 0
12:54 pm 12:54 Sunny 79 26.1 60 15.6 52 52 SE 9 15 30.14 1021 10 16.0934 0 0
1:54 pm 13:54 Sunny 81 27.2 59 15 47 47 SE 13 20 30.11 1020 10 16.0934 0 0
2:54 pm 14:54 Sunny 82 27.8 61 16.1 49 49 S 14 22 30.09 1019 10 16.0934 0 0
3:54 pm 15:54 Sunny 84 28.9 61 16.1 46 46 S 10 17 30.06 1018 10 16.0934 0 0
4:54 pm 16:54 Sunny 85 29.4 62 16.7 46 46 SE 12 19 30.06 1018 10 16.0934 0 0
5:54 pm 17:54 Sunny 84 28.9 60 15.6 44 44 SSE 9 15 30.06 1018 10 16.0934 0 0
6:54 pm 18:54 Sunny 82 27.8 62 16.7 51 51 SSE 8 13 30.04 1017 10 16.0934 0 0
7:54 pm 19:54 Sunny 76 24.4 64 17.8 67 67 ESE 13 20 30.04 1017 10 16.0934 0 0
8:54 pm 20:54 Clear 74 23.3 63 17.2 69 69 SE 12 19 30.04 1017 10 16.0934 0 0
9:54 pm 21:54 Clear 73 22.8 63 17.2 71 71 ESE 9 15 30.06 1018 10 16.0934 0 0
10:54 pm 22:54 Clear 71 21.7 63 17.2 76 76 SE 9 15 30.05 1018 10 16.0934 0 0
11:54 pm 23:54 Clear 71 21.7 62 16.7 73 73 SSE 12 19 30.04 1017 10 16.0934 0 0

Powered by AerisWeather